{"data":{"norad_id":81899,"intl_designator":"","name":"UNKNOWN","alt_names":[],"object_type":"UNKNOWN","status":"UNKNOWN","operator":null,"country":null,"launch_date":null,"launch_site_code":null,"launch_vehicle":null,"mission":null,"orbit_class":"UNKNOWN","rcs_meters":null,"size_class":null,"mass_kg":null,"dimensions":null,"purposes":[],"wikipedia_slug":null,"has_3d_model":false,"image_url":null,"decayed_at":null,"tle_current":{"epoch":"2026-09-15T21:38:10.960800Z","epoch_age_seconds":412042,"freshness":"STALE","line1":"1 81899U          26258.90151575  .00001026  00000+0  24521-2 0  9995","line2":"2 81899 102.4142  55.8405 0173794 346.8643  12.7970 13.21077112615578","mean_motion":13.21077112,"eccentricity":0.0173794,"inclination_deg":102.4142,"raan_deg":55.8405,"arg_perigee_deg":346.8643,"mean_anomaly_deg":12.797,"bstar":0.0024521,"rev_number":61557,"period_min":109.00196414878,"perigee_km":1049.2421413851,"apogee_km":1311.9750681114,"semimajor_km":7558.7456047483,"source":"CELESTRAK","updated_at":"2026-09-20T09:00:32.397727Z"}}}